TimeEST,TemperatureF,Dew PointF,Humidity,Sea Level PressureIn,VisibilityMPH,Wind Direction,Wind SpeedMPH,Gust SpeedMPH,PrecipitationIn,Events,Conditions,WindDirDegrees,DateUTC
12:27 AM,39.2,37.4,93,29.97,8.0,SSE,5.8,-,0.03,Rain,Light Rain,150,2013-01-16 05:27:00
12:51 AM,39.9,37.9,93,30.01,10.0,SE,9.2,-,0.06,Rain,Light Rain,140,2013-01-16 05:51:00
1:51 AM,41.0,37.4,87,29.93,10.0,SSE,12.7,19.6,N/A,Rain,Light Rain,150,2013-01-16 06:51:00
2:51 AM,42.1,39.9,92,29.97,10.0,SSE,9.2,17.3,0.01,Rain,Light Rain,150,2013-01-16 07:51:00
3:51 AM,42.8,39.2,87,29.91,9.0,SE,9.2,-,N/A,Rain,Light Rain,130,2013-01-16 08:51:00
4:20 AM,42.8,41.0,93,29.91,6.0,ESE,6.9,-,0.03,Rain,Rain,120,2013-01-16 09:20:00
4:51 AM,43.0,41.0,93,29.94,8.0,SE,3.5,-,0.07,Rain,Light Rain,140,2013-01-16 09:51:00
5:01 AM,42.8,41.0,93,29.93,5.0,NW,4.6,-,N/A,Rain,Rain,320,2013-01-16 10:01:00
5:51 AM,43.0,41.0,93,29.94,9.0,Calm,Calm,-,0.07,Rain,Light Rain,0,2013-01-16 10:51:00
6:07 AM,42.8,41.0,93,29.91,2.5,SSE,8.1,-,0.06,Rain,Rain,160,2013-01-16 11:07:00
6:09 AM,42.8,41.0,93,29.91,3.0,South,9.2,-,0.06,Rain,Rain,170,2013-01-16 11:09:00
6:32 AM,42.8,42.8,100,29.92,8.0,South,5.8,-,0.10,Rain,Light Rain,170,2013-01-16 11:32:00
6:51 AM,43.0,41.0,93,29.95,4.0,SE,5.8,-,0.14,Rain,Light Rain,140,2013-01-16 11:51:00
7:27 AM,44.6,42.8,93,29.94,8.0,Calm,Calm,-,0.02,Rain,Light Rain,0,2013-01-16 12:27:00
7:34 AM,44.6,42.8,93,29.94,6.0,North,4.6,-,0.03,Rain,Light Rain,360,2013-01-16 12:34:00
7:37 AM,42.8,41.0,93,29.95,1.8,North,8.1,-,0.03,Rain,Light Rain,360,2013-01-16 12:37:00
7:47 AM,42.8,39.2,87,29.95,0.8,Calm,Calm,-,0.04,Rain,Light Rain,0,2013-01-16 12:47:00
7:51 AM,42.1,41.0,96,30.01,1.2,Calm,Calm,-,0.04,Rain,Rain,0,2013-01-16 12:51:00
8:03 AM,42.8,41.0,93,29.97,2.5,Calm,Calm,-,0.03,Rain,Rain,0,2013-01-16 13:03:00
8:08 AM,42.8,41.0,93,29.99,3.0,Calm,Calm,-,0.04,Rain,Light Rain,0,2013-01-16 13:08:00
8:19 AM,41.0,41.0,100,30.00,2.0,Calm,Calm,-,0.04,Rain,Light Rain,0,2013-01-16 13:19:00
8:28 AM,42.8,41.0,93,30.00,6.0,Calm,Calm,-,0.05,Rain,Light Rain,0,2013-01-16 13:28:00
8:43 AM,42.8,42.8,100,30.00,7.0,South,4.6,-,0.06,Rain,Light Rain,170,2013-01-16 13:43:00
8:51 AM,44.6,42.8,93,30.00,5.0,South,6.9,-,N/A,Rain,Light Rain,170,2013-01-16 13:51:00
9:51 AM,48.0,45.0,89,29.99,10.0,South,10.4,-,0.02,Rain,Light Rain,190,2013-01-16 14:51:00
10:51 AM,52.0,45.0,77,29.92,10.0,South,11.5,21.9,0.00,,Overcast,180,2013-01-16 15:51:00
11:51 AM,53.1,45.0,74,29.89,10.0,WSW,5.8,-,N/A,,Overcast,240,2013-01-16 16:51:00
12:25 PM,48.2,44.6,87,29.92,10.0,WNW,9.2,21.9,N/A,,Overcast,290,2013-01-16 17:25:00
12:41 PM,48.2,44.6,87,29.92,10.0,WNW,6.9,-,N/A,,Overcast,290,2013-01-16 17:41:00
12:51 PM,46.0,44.1,93,29.94,0.8,Variable,4.6,-,N/A,,Overcast,0,2013-01-16 17:51:00
1:02 PM,46.4,44.6,93,29.90,4.0,WSW,8.1,-,N/A,,Overcast,240,2013-01-16 18:02:00
1:26 PM,44.6,42.8,93,29.93,0.8,NW,11.5,20.7,0.00,Rain,Light Rain,320,2013-01-16 18:26:00
1:29 PM,42.8,42.8,100,29.94,0.2,NNW,12.7,-,0.00,Fog-Rain,Light Rain,330,2013-01-16 18:29:00
1:42 PM,39.2,39.2,100,29.93,0.2,North,8.1,-,0.00,Fog-Rain,Light Rain,360,2013-01-16 18:42:00
1:51 PM,39.0,37.9,96,29.97,0.2,North,6.9,-,0.00,Fog-Rain,Light Rain,350,2013-01-16 18:51:00
2:51 PM,36.0,35.1,97,30.00,0.2,North,6.9,-,0.00,Fog-Rain,Light Rain,350,2013-01-16 19:51:00
3:48 PM,35.6,33.8,93,29.98,0.5,North,12.7,-,0.00,Fog-Rain,Light Rain,350,2013-01-16 20:48:00
3:51 PM,35.1,34.0,96,30.04,0.8,North,12.7,-,0.00,Rain,Light Rain,350,2013-01-16 20:51:00
4:00 PM,35.6,33.8,93,29.98,1.2,NW,4.6,-,0.00,Rain,Light Rain,310,2013-01-16 21:00:00
4:35 PM,35.6,33.8,93,29.98,2.0,North,3.5,-,0.01,Rain,Rain,350,2013-01-16 21:35:00
4:47 PM,35.6,33.8,93,29.99,4.0,Calm,Calm,-,0.02,Rain,Light Rain,0,2013-01-16 21:47:00
4:51 PM,35.1,34.0,96,30.05,6.0,NNW,3.5,-,0.02,Rain,Light Rain,330,2013-01-16 21:51:00
5:27 PM,35.6,33.8,93,30.01,10.0,Calm,Calm,-,0.01,Rain,Light Rain,0,2013-01-16 22:27:00
5:34 PM,35.6,33.8,93,30.01,9.0,Calm,Calm,-,0.01,,Overcast,0,2013-01-16 22:34:00
5:51 PM,35.1,33.1,92,30.08,4.0,West,4.6,-,0.01,,Overcast,260,2013-01-16 22:51:00
6:27 PM,35.6,33.8,93,30.03,8.0,WSW,4.6,-,0.00,Rain,Light Rain,240,2013-01-16 23:27:00
6:39 PM,35.6,33.8,93,30.02,9.0,SSW,3.5,-,0.00,,Overcast,210,2013-01-16 23:39:00
6:51 PM,35.1,34.0,96,30.06,9.0,Calm,Calm,-,0.00,Rain,Light Rain,0,2013-01-16 23:51:00
7:51 PM,36.0,35.1,97,30.07,10.0,SSW,3.5,-,0.00,,Overcast,210,2013-01-17 00:51:00
8:51 PM,37.0,35.1,93,30.07,10.0,SW,4.6,-,N/A,,Overcast,230,2013-01-17 01:51:00
9:25 PM,37.4,35.6,93,30.01,10.0,SSW,4.6,-,N/A,,Overcast,210,2013-01-17 02:25:00
9:51 PM,37.0,35.1,93,30.03,10.0,Calm,Calm,-,N/A,,Overcast,0,2013-01-17 02:51:00
10:04 PM,37.4,35.6,93,30.00,10.0,Calm,Calm,-,N/A,,Overcast,0,2013-01-17 03:04:00
10:51 PM,37.0,35.1,93,30.03,10.0,SW,4.6,-,N/A,,Overcast,220,2013-01-17 03:51:00
11:29 PM,35.6,35.6,100,30.03,10.0,West,4.6,-,N/A,,Overcast,280,2013-01-17 04:29:00
11:51 PM,36.0,35.1,97,30.04,9.0,Calm,Calm,-,N/A,,Overcast,0,2013-01-17 04:51:00